Flag for Canada Weather past 2 weeks in Kuujjuaq, Quebec, Canada

Now
37 °F

Passing clouds.


Feels Like: 32 °F
Forecast: 33 / 40 °F
Wind: 7 mph from Southeast

Location: Kuujjuaq

Current Time: Sep 19, 2014 at 10:42:46 PM

Latest Report: Sep 19, 2014 at 10:00 PM


Visibility: 15 mi

Pressure: 29.79 "Hg

Humidity: 75%

Dew point: 30 °F

Location of KuujjuaqLocation

Historic Weather in Kuujjuaq — Graph

°F

Kuujjuaq temperature yesterday

Maximum temperature yesterday: 37 °F (at 3:00 PM)
Minimum temperature yesterday: 32 °F (at 7:00 AM)
Average temperature yesterday: 35 °F

Past Weeks' High & Low Weather Summary

 TemperatureHumidityPressure
High59 °F (Sep 9, 10:00 AM)100% (Sep 5, 12:00 AM)30.11 "Hg (Sep 5, 12:00 AM)
Low32 °F (Sep 7, 10:00 PM)22% (Sep 19, 8:00 PM)29.31 "Hg (Sep 17, 4:00 AM)
Average43 °F76%29.78 "Hg
* Reported Sep 4 9:00 PM — Sep 19 9:00 PM, Kuujjuaq, Weather by CustomWeather, © 2014

Note: Actual official high and low records may vary slightly from our data, if they occured in-between our weather recording intervals... More about our weather records

Advertising

Kuujjuaq weather history for previous 24 hours

 ConditionsComfort  
Time TempWeatherWind HumidityBarometerVisibility
9:00 PM
Sep 19
36 °FPartly cloudy.5 mph75%29.83 "Hg15 mi
8:00 PM39 °FMostly cloudy.6 mph22%29.84 "Hg15 mi
7:00 PM39 °FMore clouds than sun.7 mph61%29.87 "Hg15 mi
6:00 PM39 °FCloudy.7 mph56%29.89 "Hg15 mi
5:00 PM41 °FBroken clouds.5 mph49%29.91 "Hg15 mi
4:00 PM41 °FScattered showers. Partly sunny.7 mph49%29.93 "Hg15 mi
3:00 PM39 °FPartly sunny.8 mph48%29.96 "Hg15 mi
2:00 PM39 °FPartly sunny.12 mph52%29.98 "Hg15 mi
1:00 PM39 °FScattered showers. Mostly cloudy.12 mph61%29.99 "Hg15 mi
12:00 PM39 °FScattered showers. Mostly cloudy.16 mph61%29.99 "Hg15 mi
11:00 AM39 °FMostly cloudy.13 mph61%30.00 "Hg15 mi
10:00 AM37 °FMostly cloudy.9 mph75%30.00 "Hg15 mi
9:00 AM37 °FScattered showers. Mostly cloudy.14 mph81%30.00 "Hg15 mi
8:00 AM37 °FScattered showers. Overcast.8 mph81%29.98 "Hg15 mi
7:00 AM36 °FScattered showers. Overcast.7 mph87%29.97 "Hg15 mi
6:00 AM34 °FPartly cloudy.3 mph87%29.96 "Hg15 mi
5:00 AM37 °FPassing clouds.10 mph81%29.94 "Hg15 mi
4:00 AM37 °FPassing clouds.9 mph81%29.93 "Hg15 mi
3:00 AM37 °FPassing clouds.10 mph81%29.90 "Hg15 mi
2:00 AM37 °FMostly cloudy.14 mph81%29.88 "Hg15 mi
1:00 AM37 °FPartly cloudy.15 mph87%29.85 "Hg15 mi
12:00 AM37 °FMostly cloudy.15 mph93%29.84 "Hg15 mi
11:00 PM
Sep 18
37 °FOvercast.14 mph93%29.83 "Hg15 mi
10:00 PM37 °FSprinkles. Mostly cloudy.16 mph93%29.82 "Hg12 mi
Weather by CustomWeather, © 2014

See weather overviewHow to use our weather pages